Location: Fort Wayne
(41.1310°N, 85.1290°W)
Time: 16:20:39
(UTC-04:00)

Cosmos 2056 Rocket - Visible Passes

Search period start: 24 June 2016 00:00
Search period end: 04 July 2016 00:00
Orbit: 743 x 801 km, 74.0° (Epoch: 23 June)

Date Brightness Start Highest point End Pass type
(mag) Time Alt. Az. Time Alt. Az. Time Alt. Az.
24 Jun 4.4 03:18:39 29° SSE 03:20:35 41° ESE 03:25:31 10° NE visible
24 Jun 4.9 04:59:00 12° WSW 05:02:51 26° WNW 05:07:15 10° N visible
25 Jun 5.1 02:43:31 22° ESE 02:44:53 24° E 02:49:05 10° NE visible
25 Jun 4.2 04:23:52 23° WSW 04:26:46 41° WNW 04:31:44 10° N visible
26 Jun 5.6 02:08:22 14° ESE 02:09:16 14° E 02:12:01 10° ENE visible
26 Jun 3.6 03:48:43 37° SW 03:50:46 68° WNW 03:56:02 10° NNE visible
27 Jun 3.5 03:13:32 50° S 03:14:53 74° ESE 03:20:08 10° NNE visible
27 Jun 5.5 04:54:27 10° W 04:57:35 16° NW 05:00:43 10° NNW visible
28 Jun 4.1 02:38:19 41° SE 02:39:05 43° ESE 02:44:02 10° NNE visible
28 Jun 5.0 04:18:39 17° W 04:21:22 24° WNW 04:25:38 10° N visible
29 Jun 4.9 02:03:05 26° ESE 02:03:21 26° E 02:07:39 10° NE visible
29 Jun 4.4 03:43:25 29° WSW 03:45:16 38° WNW 03:50:10 10° N visible
30 Jun 5.5 01:27:49 15° E 01:27:49 15° E 01:30:42 10° ENE visible
30 Jun 3.7 03:08:09 50° WSW 03:09:16 63° WNW 03:14:29 10° NNE visible
01 Jul 3.4 02:32:51 71° SSE 02:33:22 79° ESE 02:38:37 10° NNE visible
01 Jul 5.7 04:13:14 10° W 04:16:08 15° NW 04:19:00 10° NNW visible
02 Jul 4.0 01:57:32 46° ESE 01:57:33 46° ESE 02:02:32 10° NNE visible
02 Jul 5.2 03:37:52 18° W 03:39:54 23° WNW 03:44:01 10° N visible
03 Jul 4.8 01:22:12 27° E 01:22:12 27° E 01:26:11 10° NE visible
03 Jul 4.5 03:02:31 32° W 03:03:47 36° WNW 03:08:35 10° N visible
